Location: Ostrava
(49.8330°N, 18.2830°E)
Time: 23:04:40
(UTC+02:00)

Iridium 39 - Visible Passes

Search period start: 23 April 2014 00:00
Search period end: 03 May 2014 00:00
Orbit: 776 x 779 km, 86.4° (Epoch: 23 April)

Date Brightness Start Highest point End Pass type
(mag) Time Alt. Az. Time Alt. Az. Time Alt. Az.
23 Apr 7.9 21:19:41 10° SW 21:24:21 33° WNW 21:29:02 10° NNW visible
24 Apr 6.9 20:45:32 10° SSW 20:50:38 55° W 20:55:46 10° N visible
25 Apr 8.9 21:55:37 10° WSW 21:58:33 15° WNW 22:01:31 10° NNW visible
26 Apr 8.5 21:20:25 10° SW 21:24:37 24° WNW 21:28:51 10° NNW visible
27 Apr 7.6 20:45:57 10° SSW 20:50:49 40° WNW 20:55:44 10° N visible
28 Apr 9.3 21:57:38 10° WNW 21:58:58 11° WNW 22:00:18 10° NW visible
29 Apr 8.9 21:21:24 10° WSW 21:24:56 18° WNW 21:28:30 10° NNW visible
30 Apr 8.3 20:46:32 10° SW 20:51:04 29° WNW 20:55:37 10° NNW visible
02 May 9.2 21:22:47 10° W 21:25:19 14° WNW 21:27:51 10° NW visible
